TimeEST,TemperatureF,Dew PointF,Humidity,Sea Level PressureIn,VisibilityMPH,Wind Direction,Wind SpeedMPH,Gust SpeedMPH,PrecipitationIn,Events,Conditions,WindDirDegrees,DateUTC
12:53 AM,21.9,14.0,72,29.80,10.0,NW,3.5,-,N/A,,Overcast,310,2014-01-27 05:53:00
1:53 AM,21.9,16.0,78,29.78,10.0,Calm,Calm,-,N/A,,Overcast,0,2014-01-27 06:53:00
2:53 AM,21.9,15.1,75,29.76,10.0,NNW,4.6,-,N/A,,Overcast,330,2014-01-27 07:53:00
3:53 AM,21.9,15.1,75,29.72,10.0,West,3.5,-,N/A,,Scattered Clouds,260,2014-01-27 08:53:00
4:53 AM,21.9,15.1,75,29.69,10.0,Calm,Calm,-,N/A,,Clear,0,2014-01-27 09:53:00
5:53 AM,21.9,16.0,78,29.66,10.0,Calm,Calm,-,N/A,,Mostly Cloudy,0,2014-01-27 10:53:00
6:53 AM,23.0,16.0,74,29.65,10.0,Calm,Calm,-,N/A,,Overcast,0,2014-01-27 11:53:00
7:53 AM,27.0,21.0,78,29.62,8.0,Calm,Calm,-,N/A,,Overcast,0,2014-01-27 12:53:00
8:53 AM,36.0,28.9,76,29.63,10.0,SSE,6.9,-,0.00,Rain,Light Rain,160,2014-01-27 13:53:00
9:53 AM,37.9,30.9,76,29.62,10.0,South,6.9,-,0.00,Rain,Light Rain,170,2014-01-27 14:53:00
10:53 AM,39.0,30.9,73,29.60,10.0,South,10.4,-,0.00,,Overcast,170,2014-01-27 15:53:00
11:53 AM,41.0,28.9,62,29.60,10.0,SSW,8.1,-,N/A,,Overcast,210,2014-01-27 16:53:00
12:53 PM,42.1,27.0,55,29.61,10.0,Variable,6.9,19.6,N/A,,Mostly Cloudy,0,2014-01-27 17:53:00
1:53 PM,42.1,23.0,47,29.65,10.0,West,9.2,20.7,N/A,,Clear,280,2014-01-27 18:53:00
2:53 PM,39.0,21.9,50,29.69,10.0,WNW,10.4,24.2,N/A,,Overcast,300,2014-01-27 19:53:00
3:53 PM,33.1,21.0,61,29.77,10.0,NNW,10.4,-,N/A,,Overcast,340,2014-01-27 20:53:00
4:53 PM,30.9,12.9,47,29.81,10.0,NW,11.5,20.7,N/A,,Overcast,310,2014-01-27 21:53:00
5:53 PM,28.0,1.9,33,29.87,10.0,NNW,11.5,19.6,N/A,,Mostly Cloudy,330,2014-01-27 22:53:00
6:53 PM,26.1,-4.0,27,29.91,10.0,NNW,17.3,23.0,N/A,,Clear,330,2014-01-27 23:53:00
7:53 PM,25.0,-6.0,26,29.96,10.0,NW,15.0,-,N/A,,Clear,320,2014-01-28 00:53:00
8:53 PM,23.0,-7.1,27,29.97,10.0,NW,12.7,-,N/A,,Clear,320,2014-01-28 01:53:00
9:53 PM,21.9,-7.1,28,30.01,10.0,NW,11.5,-,N/A,,Clear,310,2014-01-28 02:53:00
10:53 PM,21.0,-6.0,30,30.04,10.0,NNW,9.2,-,N/A,,Clear,330,2014-01-28 03:53:00
11:53 PM,21.0,-4.0,33,30.06,10.0,NW,8.1,-,N/A,,Clear,310,2014-01-28 04:53:00